Location: Lake Crest
(37.6062°N, 88.9176°W)
Time: 06:44:43
(UTC+00:00)

Cosmos 1943 - Pass Details

Date: 15 December 2019
Orbit: 835 x 848 km, 71.0° (Epoch: 19 January)

Event Time Altitude Azimuth Distance (km) Brightness Sun altitude
Rises 00:34:05 0° 202° (SSW) 3,381 6.8 -22.2°
Reaches altitude 10° 00:36:31 10° 203° (SSW) 2,448 6.0 -22.7°
Maximum altitude 00:42:09 85° 292° (WNW) 847 3.1 -23.8°
Enters shadow 00:44:23 38° 18° (NNE) 1,252 3.8 -24.2°
